Tracking 33744 objects as of 12-Apr-2026
HD Live streaming from Space Station
objects crossing your sky now

STARLINK-36302

Track STARLINK-36302 now!
10-day predictions
STARLINK-36302 is classified as:


NORAD ID: 68524
Int'l Code: 2026-068S
Perigee: 334.4 km
Apogee: 335.7 km
Inclination: 53.2 °
Period: 91.1 minutes
Semi major axis: 6706 km
RCS: Unknown
Launch date: March 30, 2026
Source: United States (US)
Launch site: AIR FORCE EASTERN TEST RANGE (AFETR)
Your satellite tracking list
Your tracking list is empty




NASA's NSSDC Master Catalog

Two Line Element Set (TLE):
1 68524U 26068S   26102.50001156 -.00047869  00000-0 -24008-3 0  9999
2 68524  53.1595 339.7423 0000970  99.6208  24.5268 15.80895647  3245
Source of the keplerian elements: AFSPC